Weather Roundup
Issued by NWS

Home | Current Version | Previous Version | Text Only | Print | Product List | Glossary On
Versions: 1 2 3 4 5 6 7 8 9 10 11 12 13 14 15 16 17 18 19 20 21 22 23 24 25 26 27 28 29 30 31 32 33 34 35 36 37 38 39 40 41 42 43 44 45 46 47 48 49 50
137
NZUS93 KARX 232259
HRRWXR

CURRENT HOURLY OBSERVATIONS ACROSS
MUCH OF THE UPPER MISSISSIPPI VALLEY
NATIONAL WEATHER SERVICE LA CROSSE WI
600 PM CDT SAT SEP 23 2017


...SOUTHEAST MINNESOTA...


CITY           SKY/WX    TMP DP  RH WIND       PRES   REMARKS
ROCHESTER      SUNNY     85  64  49 S13       29.97F
ROCHESTER/MAYO FAIR      87  61  41 S9        29.96F
WINONA         SUNNY     90  63  40 S6        29.95F HX  90
AUSTIN         SUNNY     86  63  45 S8        29.95F
ALBERT LEA     MOSUNNY   90  64  43 S8        29.94S HX  91
DODGE CENTER   MOSUNNY   88  61  40 S14       29.96F
PRESTON        SUNNY     84  62  46 S9        29.99S
OWATONNA       CLOUDY    86  68  54 S7        29.94S
FARIBAULT      MOSUNNY   84  68  58 E5        29.93S
$$

...ELSEWHERE IN MINNESOTA...


CITY           SKY/WX    TMP DP  RH WIND       PRES   REMARKS
MINNEAPOLIS    CLOUDY    86  71  60 SE6       29.91F HX  91
INTNL FALLS    CLOUDY    57  54  89 NW5       30.02F
DULUTH         CLOUDY    74  70  87 NW5       29.97R
RED WING       MOSUNNY   88  66  48 SE3       29.91F HX  90
REDWOOD FALLS  PTSUNNY   68  63  84 NW13      29.95R
MANKATO        MOSUNNY   86  68  54 S8        29.91S
WORTHINGTON    CLOUDY    67  64  90 N8        29.93R
FAIRMONT       SUNNY     86  66  51 S13       29.91S
$$

...SOUTHWEST WISCONSIN...


CITY           SKY/WX    TMP DP  RH WIND       PRES   REMARKS
LA CROSSE      CLEAR     92  63  38 S12       29.96S HX  93
PRAIRIE DU CHI CLEAR     90  59  34 SE7       29.97S
BOSCOBEL       CLEAR     92  62  36 S8        29.99R HX  92
LONE ROCK      CLEAR     88  63  43 S6        30.00R
PLATTEVILLE    CLEAR     90  61  38 S8        30.02S HX  90
FORT MC COY    CLEAR     87  65  47 S7        30.00S
MAUSTON-NEW LI CLEAR     89  66  46 CALM      30.00S HX  91
VIROQUA        FAIR      88  64  45 S6        30.02S
WIS DELLS      NOT AVBL
$$

...ELSEWHERE IN WISCONSIN...


CITY           SKY/WX    TMP DP  RH WIND       PRES   REMARKS
MILWAUKEE      CLEAR     84  67  56 SE10      30.04S
MADISON        CLEAR     88  64  44 S7        30.02R
GREEN BAY      CLEAR     86  66  51 S7        30.02S
EAU CLAIRE     NOT AVBL
BLACK RVR FLS  FAIR      90  60  35 S7        29.98S HX  90
MEDFORD        CLEAR     82  65  55 SW8       30.02S
WAUSAU         PTCLDY    85  65  51 SW9       30.01S
WIS RAPIDS     CLEAR     87  67  51 S3        30.03S HX  90
MARSHFIELD     CLEAR     84  64  50 S7        30.02S
RICE LAKE      MOCLDY    83  67  58 S5        29.98F
$$

...NORTHEAST IOWA...


CITY           SKY/WX    TMP DP  RH WIND       PRES   REMARKS
WATERLOO       SUNNY     90  61  37 S8        29.95S HX  90
DUBUQUE        CLEAR     86  66  51 SE6       30.02S
DECORAH        PTSUNNY   90  63  40 S8        29.98S HX  90
MASON CITY     CLOUDY    87  61  41 S15       29.96F
CHARLES CITY   SUNNY     88  61  40 S10       29.97F
OELWEIN        MOSUNNY   90  63  40 S10       29.99S HX  90
$$

...ELSEWHERE IN IOWA...


CITY           SKY/WX    TMP DP  RH WIND       PRES   REMARKS
DES MOINES     MOSUNNY   88  63  43 S12       29.93S
IOWA CITY      SUNNY     92  62  36 S6        29.99R HX  92
FORT DODGE     SUNNY     88  63  43 VRB7      29.93S
MARSHALLTOWN   SUNNY     89  64  43 S14       29.95F HX  90
CEDAR RAPIDS   SUNNY     90  62  39 SE7       29.98S HX  90
$$

...NORTHERN ILLINOIS...


CITY           SKY/WX    TMP DP  RH WIND       PRES   REMARKS
CHICAGO-OHARE  PTCLDY    89  64  43 E12       30.03S HX  90
CHICAGO-MIDWAY PTCLDY    89  67  47 E12       30.03S HX  92
MOLINE         CLEAR     87  67  51 SE5       29.99S HX  90
ROCKFORD       PTCLDY    88  62  41 S9        30.03S
PEORIA         CLEAR     90  62  39 SE6       30.01S HX  90
$$

NOTE: "FAIR" INDICATES FEW OR NO CLOUDS BELOW 12,000 FEET WITH NO
SIGNIFICANT WEATHER AND/OR OBSTRUCTIONS TO VISIBILITY. WIND
SPEEDS ARE IN MILES-PER-HOUR.




USA.gov is the U.S. government's official web portal to all federal, state and local government web resources and services.